www.pogodaiklimat.ru

Погода и климат >> Архив погоды >> ОАЭ >> Эль-Айн


ПОГОДА в Эль-Айне

  • Прогноз погоды в Эль-Айне
  • Монитор погоды в Эль-Айне

АРХИВ ПОГОДЫ в Эль-Айне

Время (UTC), дата Ветер
(напр.,м/с)
 
Видим.   Явления Облачность Т
(С)
Тd
(С)
f
(%)
Тe
(С)
Тes
(С)
Комфортность P
(гПа)
Po
(гПа)
Тmin
(С)
Tmax
(С)
R
(мм)
R24
(мм)
S
(см)
09 12.08 З 3 8000 м пыль 3/0
[Ac trans]
+41.4 +22.4 34 +49 +63 опасность
перегрева
994.9 966.8
12 12.08 З 5 9000 м пыль 8/1 1350 м
[Cb cap Ac cuf Ci ing]
+42.8 +17.1 23 +45 +48 опасность
перегрева
993.3 965.4
15 12.08 В 6 7000 м пыль 6/0
[Ac trans Ci fib]
+36.6 +19.5 37 +42 +42 опасность
перегрева
995.7 967.1
18 12.08 ЮЗ 3 10 км 5/0
[Ac trans]
+37.7 +16.5 29 +40 +40 очень
душно
996.8 968.3 +43.7
21 12.08 Ю 2 10 км 5/0
[Ac trans]
+36.4 +16.5 31 +39 +39 очень
душно
996.3 967.7
00 13.08 В 2 10 км 6/0
[Ac trans Ci fib]
+35.3 +17.9 36 +39 +39 очень
душно
996.5 967.8
03 13.08 ЮВ 4 8000 м пыль 8/0
[Ac trans]
+34.9 +23.2 51 +45 +46 опасность
перегрева
997.9 969.2
06 13.08 Ю 7 7000 м пыль 8/0
[Ac As]
+37.2 +17.7 32 +41 +43 опасность
перегрева
999.2 970.6 +34.3
09 13.08 Ю 5 7000 м пыль 4/0
[Ac trans]
+41.6 +17.5 25 +44 +54 опасность
перегрева
997.7 969.6
12 13.08 ЮЗ 3 7000 м пыль 5/0
[Ac trans]
+42.8 +14.9 20 +44 +49 опасность
перегрева
996.3 968.3
15 13.08 З 5 7000 м пыль 4/0
[Ac trans]
+41.7 +14.0 20 +42 +42 опасность
перегрева
996.8 968.7
18 13.08 СЗ 4 8000 м пыль 5/0
[Ac trans]
+37.5 +23.5 45 +48 +48 опасность
перегрева
998.8 970.3 +43.4
21 13.08 СВ 2 8000 м пыль 5/0
[Ac trans]
+36.7 +23.9 48 +48 +48 опасность
перегрева
998.0 969.4
00 14.08 В 3 8000 м пыль 5/0
[Ac trans]
+36.3 +23.8 49 +48 +48 опасность
перегрева
998.1 969.5
03 14.08 Ю 5 10 км 3/0
[Ac trans]
+34.1 +16.8 36 +37 +38 очень
душно
1000.1 971.2
06 14.08 Ю 6 9000 м пыль 3/0
[Ac trans]
+38.2 +17.5 30 +41 +47 опасность
перегрева
1000.5 972.0 +33.9
09 14.08 Ю 2 8000 м пыль ясно +43.3 +15.3 20 +44 +65 опасность
перегрева
998.2 970.2
12 14.08 СЗ 4 8000 м пыль 5/1 1350 м
[Cu hum Ac trans]
+45.2 +12.2 15 +45 +48 опасность
перегрева
996.1 968.3
15 14.08 С 4 8000 м пыль 1/0
[Ac trans]
+42.8 +18.5 25 +46 +46 опасность
перегрева
996.9 968.9
18 14.08 СВ 4 8000 м пыль ясно +40.2 +19.8 31 +45 +45 опасность
перегрева
999.4 971.1 +45.9
21 14.08 нст 1 9000 м пыль ясно +37.3 +20.6 38 +44 +44 опасность
перегрева
998.8 970.3
00 15.08 Ю 7 4500 м пыль ясно +34.8 +18.7 39 +40 +40 очень
душно
1000.1 971.3
03 15.08 ЮВ 5 8000 м пыль ясно +33.3 +17.8 40 +37 +38 очень
душно
1001.7 972.7
06 15.08 Ю 7 8000 м пыль ясно +37.4 +18.3 33 +41 +46 опасность
перегрева
1001.8 973.2 +33.2
09 15.08 ЮВ 3 8000 м пыль 1/0
[Ci fib]
+42.6 +13.9 19 +43 +61 опасность
перегрева
999.3 971.2
12 15.08 В 5 8000 м пыль ясно +44.6 +9.4 13 +43 +48 опасность
перегрева
997.1 969.2
15 15.08 В 5 7000 м пыль ясно +42.5 +10.0 15 +41 +41 опасность
перегрева
997.1 969.1
18 15.08 В 4 8000 м пыль ясно +39.3 +11.1 19 +38 +38 очень
жарко
999.6 971.2 +45.1
21 15.08 В 3 10 км ясно +37.2 +11.7 22 +37 +37 очень
жарко
999.8 971.2
00 16.08 Ю 7 6000 м пыль ясно +33.6 +20.0 45 +40 +40 очень
душно
1000.0 971.1
03 16.08 Ю 6 8000 м пыль ясно +32.1 +20.0 49 +38 +39 очень
душно
1001.4 972.3
06 16.08 Ю 8 8000 м пыль ясно +36.1 +19.5 38 +41 +44 опасность
перегрева
1001.5 972.8 +31.9
09 16.08 Ю 4 8000 м пыль ясно +41.3 +15.9 23 +43 +56 опасность
перегрева
999.2 971.0
12 16.08 нст 2 10 км ясно +43.7 +13.9 18 +44 +52 опасность
перегрева
996.4 968.5
15 16.08 С 9 6000 м пыльный позёмок 1/0
[Ac trans]
+40.2 +22.2 36 +48 +48 опасность
перегрева
996.7 968.5
18 16.08 С 6 8000 м пыль ясно +38.2 +18.5 32 +42 +42 опасность
перегрева
998.5 970.0 +44.3
21 16.08 В 3 9000 м пыль 1/0
[Ac trans]
+36.2 +15.8 30 +38 +38 очень
душно
997.5 968.9
00 17.08 ЮВ 6 7000 м пыль 1/0
[Ac trans]
+35.0 +16.7 34 +38 +38 очень
душно
997.4 968.7
03 17.08 Ю 5 7000 м пыль ясно +32.6 +19.4 46 +38 +39 очень
душно
999.5 970.5
06 17.08 Ю 7 8000 м пыль ясно +37.0 +18.0 33 +41 +45 опасность
перегрева
999.7 971.1 +32.3
09 17.08 ЮВ 5 8000 м пыль ясно +42.3 +14.5 20 +43 +55 опасность
перегрева
997.5 969.4
12 17.08 СЗ 3 8000 м пыль 3/3 1380 м
[Cu hum]
+44.0 +14.2 18 +45 +49 опасность
перегрева
995.4 967.5
15 17.08 С 5 6000 м пыль 4/0
[Ac trans Ci fib]
+40.7 +18.0 27 +44 +44 опасность
перегрева
995.9 967.7
18 17.08 С 3 10 км 3/0
[Ac trans]
+37.8 +19.7 35 +43 +43 опасность
перегрева
997.6 969.1 +44.8
21 17.08 С 4 10 км ясно +34.9 +20.4 43 +41 +41 опасность
перегрева
997.6 968.9
00 18.08 ЮВ 7 10 км 3/0
[Ci fib]
+35.2 +15.9 32 +37 +37 очень
душно
998.7 969.9
03 18.08 Ю 7 8000 м пыль ясно +34.0 +16.3 35 +37 +37 очень
душно
1000.6 971.7
06 18.08 Ю 9 8000 м пыль ясно +38.2 +15.8 27 +40 +42 очень
душно
1001.0 972.5 +33.3
09 18.08 Ю 7 8000 м пыль ясно +41.9 +16.4 23 +44 +50 опасность
перегрева
999.4 971.3
12 18.08 нст 3 8000 м пыль 3/3 1350 м
[Cu med, cong]
+43.0 +15.8 21 +45 +49 опасность
перегрева
997.6 969.6
15 18.08 СЗ 6 7000 м гроза без осадков 4/4 1200 м
[Cb cap]
+40.2 +16.9 26 +43 +43 опасность
перегрева
999.0 970.7
18 18.08 З 3 8000 м пыль {гроза} 3/1 1380 м
[Sc Ac trans]
+38.1 +19.0 33 +43 +43 опасность
перегрева
1000.9 972.4 +44.2
21 18.08 СЗ 2 7000 м пыль 3/0
[Ac trans]
+33.9 +23.2 54 +44 +44 опасность
перегрева
1001.1 972.2
00 19.08 СВ 3 8000 м пыль 3/0
[Ac trans]
+32.0 +25.5 69 +47 +47 опасность
перегрева
1001.1 972.0
03 19.08 Ю 5 6000 м пыль ясно +31.9 +18.8 46 +37 +38 очень
душно
1003.4 974.2
06 19.08 ЮВ 7 7000 м пыль ясно +35.8 +19.2 38 +41 +46 опасность
перегрева
1004.2 975.4 +31.9

 

Местоположение метеостанции Эль-Айн (ОАЭ): широта 24.27 долгота 55.60 высота над уровнем моря 262 м.

В архиве по умолчанию представлена погода в Эль-Айне за последнюю неделю. Архивные данные за месяц целиком и за предыдущие месяцы, начиная с января 2011 года, Вы можете получить, выбрав интересующий диапазон дат из раскрывающегося списка и нажав кнопку "Ввод!".


*Определитесь, кто Вы:
робот инопланетянин человек

Внимание! Время в таблицах - всемирное. Для получения местного времени необходимо прибавить поправку, которая равна 4 ч.

Смотрите также архив погоды в соседних городах и на ближайших метеорологических станциях:

Погода в Эль-Бурайми (Оман) (19 км)
Погода в Кумейре (Оман) (72 км)
Погода в Аль-Мактум аэропорту (ОАЭ) (83 км)
Погода в Абу-Даби (ОАЭ) (98 км)
Погода в Сухаре (Оман) (107 км)
Погода в Дубае (ОАЭ) (112 км)
Погода в Абу-Даби Батин аэропорту (ОАЭ) (117 км)
Погода в Фуджейре (ОАЭ) (118 км)
Погода в Шардже (ОАЭ) (118 км)
Погода в Ибри (Оман) (133 км)

Пояснения к столбцам:

Ветер - указаны скорость ветра в м/с - средняя за 10 мин, порывы в срок и между сроками (в фигурных скобках) и направление, откуда дует ветер: С - северный, СВ - северо-восточный, В - восточный, ЮВ - юго-восточный, Ю - южный, ЮЗ - юго-западный, З - западный, СЗ - северо-западный.
Видимость - горизонтальная дальность видимости в метрах или километрах. При видимости от 1 до 10 км при отсутствии осадков обычно наблюдается дымка, при ухудшении видимости до 1 км и менее - туман. В сухую погоду видимость может ухудшаться дымом, пылью или мглою.
Явления - указаны атмосферные явления, наблюдавшиеся в срок или в последний час перед сроком; фигурными скобками обозначены явления, наблюдавшиеся между сроками (за 1-3 часа до срока); квадратными скобками обозначены град или гололедные отложения с указанием их диаметра в мм.
Облачность - указаны через наклонную черту общая и нижняя облачность в баллах и высота нижней границы облаков в метрах; квадратными скобками обозначены формы облаков: Ci - перистые, Cs - перисто-слоистые, Cc - перисто-кучевые, Ac - высококучевые, As - высокослоистые, Sc - слоисто-кучевые, Ns - слоисто-дождевые, Cu - кучевые, Cb - кучево-дождевые. Подробнее классификацию облаков см. в Атласе облаков (PDF).
T - Температура воздуха - температура, измеренная на высоте 2 м над землей.
Td - Температура точки росы - температура, при понижении до которой содержащийся в воздухе водяной пар достигнет насыщения.
f - Относительная влажность воздуха - влажноcть воздуха, измеренная на высоте 2 м над землей.
Te - Эффективная температура - температура, которую ощущает одетый по сезону человек в тени. Характеристика душности погоды. При расчете учитывается влияние влажности воздуха и скорости ветра на теплоощущения человека.
Tes - Эффективная температура на солнце - температура, которую ощущает человек, с поправкой на солнечный нагрев. Характеристика знойности погоды. Зависит от высоты солнца над горизонтом, облачности и скорости ветра. Ночью, в пасмурную погоду, а также при ветре 12 м/с и более поправка равна нулю.
P - Атмосферное давление - приведенное к уровню моря атмосферное давление.
Po - Атмосферное давление - измеренное на уровне метеостанции атмосферное давление.
Tmin - Минимальная температура - минимум температуры воздуха на высоте 2 м над землей.
Tmax - Максимальная температура - максимум температуры воздуха на высоте 2 м над землей.
R - Количество осадков - Количество выпавших осадков за период времени, мм. При наведении курсора мыши на число - период времени, за который выпало указанное количество осадков.
R24 - Количество осадков - Количество выпавших осадков за 24 часа, мм.
S - Снежный покров - Высота снежного покрова, см. При наведении курсора мыши на число - состояние снежного покрова и степень покрытия местности в баллах.